�������l�o���
Date,Time,MP-1(��Sv/h),MP-2(��Sv/h),MP-3(��Sv/h),MP-4(��Sv/h),MP-5(��Sv/h),MP-6(��Sv/h),MP-7(��Sv/h),MP-8(��Sv/h),����,����(m/s),���J
2020/11/14,00:00,0.673,0.973,0.615,1.206,0.864,0.385,0.678,0.637,���k��,5.2,��
2020/11/14,00:10,0.673,0.974,0.616,1.206,0.866,0.385,0.679,0.636,�k��,4.0,��
2020/11/14,00:20,0.673,0.972,0.616,1.205,0.864,0.388,0.679,0.636,���k��,4.7,��
2020/11/14,00:30,0.674,0.971,0.616,1.207,0.864,0.387,0.677,0.638,�k��,3.2,��
2020/11/14,00:40,0.673,0.970,0.616,1.206,0.863,0.387,0.679,0.636,�k�k��,3.5,��
2020/11/14,00:50,0.673,0.972,0.616,1.205,0.864,0.385,0.678,0.636,�k�k��,4.2,��
2020/11/14,01:00,0.674,0.974,0.616,1.208,0.864,0.386,0.679,0.637,�k�k��,5.6,��
2020/11/14,01:10,0.674,0.973,0.617,1.205,0.865,0.387,0.678,0.637,�k�k��,5.3,��
2020/11/14,01:20,0.675,0.971,0.616,1.204,0.862,0.386,0.678,0.637,�k�k��,5.5,��
2020/11/14,01:30,0.675,0.972,0.616,1.206,0.863,0.386,0.679,0.637,�k�k��,5.3,��
2020/11/14,01:40,0.671,0.975,0.615,1.207,0.864,0.387,0.678,0.637,�k�k��,5.7,��
2020/11/14,01:50,0.674,0.972,0.616,1.204,0.866,0.386,0.677,0.637,�k�k��,6.6,��
2020/11/14,02:00,0.673,0.972,0.614,1.203,0.863,0.384,0.678,0.637,�k�k��,5.9,��
2020/11/14,02:10,0.673,0.974,0.616,1.206,0.864,0.386,0.679,0.637,�k�k��,6.1,��
2020/11/14,02:20,0.672,0.972,0.616,1.205,0.865,0.387,0.678,0.636,�k�k��,6.0,��
2020/11/14,02:30,0.673,0.972,0.617,1.206,0.864,0.387,0.680,0.637,�k�k��,5.5,��
2020/11/14,02:40,0.673,0.972,0.617,1.204,0.863,0.387,0.679,0.638,�k�k��,5.6,��
2020/11/14,02:50,0.673,0.972,0.615,1.207,0.865,0.386,0.679,0.636,�k�k��,5.5,��
2020/11/14,03:00,0.674,0.970,0.615,1.205,0.860,0.387,0.679,0.637,�k�k��,4.8,��
2020/11/14,03:10,0.674,0.972,0.615,1.207,0.864,0.387,0.680,0.637,�k�k��,4.5,��
2020/11/14,03:20,0.672,0.972,0.615,1.203,0.863,0.386,0.677,0.637,�k�k��,4.2,��
2020/11/14,03:30,0.673,0.973,0.614,1.207,0.863,0.386,0.678,0.636,�k�k��,4.6,��
2020/11/14,03:40,0.674,0.971,0.615,1.207,0.864,0.387,0.679,0.637,�k,6.0,��
2020/11/14,03:50,0.674,0.973,0.616,1.205,0.862,0.386,0.678,0.638,�k,6.0,��
2020/11/14,04:00,0.672,0.971,0.616,1.207,0.862,0.386,0.680,0.638,�k,5.6,��
2020/11/14,04:10,0.673,0.974,0.616,1.205,0.864,0.386,0.676,0.637,�k�k��,5.7,��
2020/11/14,04:20,0.673,0.971,0.615,1.205,0.864,0.386,0.679,0.636,�k,5.8,��
2020/11/14,04:30,0.674,0.970,0.614,1.203,0.863,0.386,0.678,0.639,�k,5.8,��
2020/11/14,04:40,0.673,0.971,0.614,1.205,0.862,0.386,0.679,0.637,�k�k��,6.1,��
2020/11/14,04:50,0.674,0.971,0.615,1.205,0.864,0.385,0.678,0.637,�k,5.1,��
2020/11/14,05:00,0.673,0.972,0.617,1.203,0.864,0.386,0.679,0.637,�k,4.2,��
2020/11/14,05:10,0.673,0.969,0.616,1.207,0.862,0.386,0.677,0.637,�k,4.9,��
2020/11/14,05:20,0.670,0.971,0.615,1.205,0.864,0.387,0.678,0.638,�k,5.0,��
2020/11/14,05:30,0.672,0.968,0.615,1.206,0.862,0.385,0.678,0.636,�k,4.5,��
2020/11/14,05:40,0.675,0.973,0.615,1.205,0.864,0.385,0.679,0.636,�k,5.5,��
2020/11/14,05:50,0.672,0.971,0.615,1.204,0.863,0.386,0.679,0.636,�k,6.3,��
2020/11/14,06:00,0.671,0.968,0.616,1.205,0.863,0.387,0.677,0.635,�k,6.0,��
2020/11/14,06:10,0.672,0.971,0.616,1.206,0.862,0.387,0.678,0.636,�k,5.0,��
2020/11/14,06:20,0.672,0.972,0.615,1.207,0.862,0.386,0.678,0.637,�k,5.9,��
2020/11/14,06:30,0.672,0.969,0.615,1.204,0.862,0.385,0.676,0.637,�k�k��,6.6,��
2020/11/14,06:40,0.672,0.970,0.614,1.206,0.864,0.383,0.677,0.637,�k�k��,7.6,��
2020/11/14,06:50,0.673,0.970,0.614,1.205,0.860,0.386,0.677,0.635,�k�k��,6.0,��
2020/11/14,07:00,0.671,0.973,0.615,1.203,0.863,0.386,0.679,0.637,�k�k��,6.6,��
2020/11/14,07:10,0.673,0.973,0.613,1.206,0.863,0.386,0.676,0.636,�k�k��,7.0,��
2020/11/14,07:20,0.671,0.972,0.615,1.206,0.861,0.386,0.680,0.635,�k�k��,6.3,��
2020/11/14,07:30,0.671,0.973,0.615,1.208,0.861,0.386,0.678,0.636,�k,6.1,��
2020/11/14,07:40,0.675,0.971,0.614,1.205,0.864,0.386,0.677,0.636,�k�k��,6.7,��
2020/11/14,07:50,0.673,0.971,0.615,1.204,0.862,0.385,0.679,0.636,�k�k��,6.4,��
2020/11/14,08:00,0.671,0.973,0.615,1.208,0.863,0.385,0.678,0.636,�k�k��,6.5,��
2020/11/14,08:10,0.674,0.972,0.614,1.205,0.865,0.385,0.678,0.637,�k�k��,6.6,��
2020/11/14,08:20,0.673,0.971,0.618,1.206,0.864,0.386,0.680,0.636,�k,4.0,��
2020/11/14,08:30,0.673,0.972,0.616,1.208,0.863,0.385,0.679,0.636,�k�k��,2.3,��
2020/11/14,08:40,0.672,0.971,0.615,1.208,0.865,0.385,0.678,0.636,�k�k��,3.9,��
2020/11/14,08:50,0.672,0.970,0.616,1.210,0.864,0.385,0.678,0.637,�k�k��,4.1,��
2020/11/14,09:00,0.672,0.971,0.615,1.208,0.861,0.386,0.676,0.638,�k�k��,3.3,��
2020/11/14,09:10,0.674,0.969,0.615,1.208,0.866,0.387,0.677,0.637,�k�k��,3.4,��
2020/11/14,09:20,0.673,0.970,0.615,1.208,0.864,0.386,0.677,0.637,�k�k��,3.6,��
2020/11/14,09:30,0.674,0.970,0.616,1.209,0.865,0.387,0.677,0.638,�k,2.8,��
2020/11/14,09:40,0.673,0.971,0.615,1.209,0.864,0.387,0.678,0.638,�k��,2.2,��
2020/11/14,09:50,0.674,0.969,0.617,1.210,0.864,0.388,0.676,0.637,�k�k��,1.7,��
2020/11/14,10:00,0.673,0.970,0.617,1.207,0.865,0.385,0.677,0.638,�k�k��,4.6,��
2020/11/14,10:10,0.674,0.970,0.615,1.208,0.868,0.386,0.678,0.636,�k�k��,4.3,��
2020/11/14,10:20,0.672,0.969,0.617,1.207,0.865,0.385,0.676,0.636,�k��,4.3,��
2020/11/14,10:30,0.672,0.968,0.614,1.207,0.866,0.386,0.676,0.638,�k��,4.5,��
2020/11/14,10:40,0.673,0.970,0.616,1.208,0.864,0.388,0.679,0.638,�k��,5.7,��
2020/11/14,10:50,0.675,0.970,0.616,1.207,0.866,0.384,0.677,0.637,�k��,4.2,��
2020/11/14,11:00,0.673,0.971,0.617,1.209,0.866,0.385,0.678,0.636,�k��,5.7,��
2020/11/14,11:10,0.675,0.970,0.616,1.209,0.865,0.384,0.680,0.636,�k��,4.7,��
2020/11/14,11:20,0.675,0.974,0.616,1.209,0.863,0.384,0.678,0.639,�k��,6.2,��
2020/11/14,11:30,0.673,0.973,0.615,1.208,0.867,0.385,0.679,0.639,�k��,5.9,��
2020/11/14,11:40,0.672,0.972,0.615,1.210,0.863,0.386,0.679,0.639,�k��,6.5,��
2020/11/14,11:50,0.675,0.974,0.616,1.209,0.865,0.386,0.678,0.639,�k�k��,6.2,��
2020/11/14,12:00,0.674,0.974,0.616,1.210,0.865,0.386,0.677,0.638,�k�k��,6.7,��
2020/11/14,12:10,0.675,0.975,0.617,1.212,0.866,0.387,0.678,0.638,�k��,6.6,��
2020/11/14,12:20,0.676,0.974,0.615,1.210,0.864,0.387,0.679,0.637,�k��,5.6,��
2020/11/14,12:30,0.675,0.975,0.615,1.208,0.867,0.385,0.677,0.636,�k�k��,5.3,��
2020/11/14,12:40,0.677,0.975,0.616,1.208,0.864,0.387,0.678,0.636,�k��,4.0,��
2020/11/14,12:50,0.675,0.975,0.616,1.209,0.869,0.386,0.677,0.635,�k�k��,3.0,��
2020/11/14,13:00,0.675,0.974,0.615,1.211,0.866,0.387,0.678,0.635,�k�k��,2.0,��
2020/11/14,13:10,0.676,0.975,0.616,1.208,0.864,0.386,0.679,0.636,�k,4.0,��
2020/11/14,13:20,0.676,0.972,0.615,1.212,0.867,0.388,0.678,0.636,�k�k��,3.8,��
2020/11/14,13:30,0.677,0.977,0.615,1.210,0.866,0.386,0.677,0.635,�k�k��,3.2,��
2020/11/14,13:40,0.675,0.973,0.616,1.213,0.866,0.386,0.679,0.634,�k��,4.4,��
2020/11/14,13:50,0.676,0.974,0.616,1.213,0.867,0.386,0.679,0.635,�k��,6.0,��
2020/11/14,14:00,0.675,0.976,0.616,1.211,0.866,0.386,0.680,0.636,�k�k��,6.7,��
2020/11/14,14:10,0.673,0.973,0.615,1.210,0.867,0.385,0.679,0.635,�k�k��,5.4,��
2020/11/14,14:20,0.675,0.975,0.616,1.209,0.864,0.384,0.677,0.635,�k��,8.2,��
2020/11/14,14:30,0.676,0.974,0.615,1.209,0.866,0.385,0.678,0.636,�k��,6.7,��
2020/11/14,14:40,0.674,0.974,0.615,1.210,0.865,0.384,0.678,0.635,�k��,6.8,��
2020/11/14,14:50,0.676,0.976,0.615,1.212,0.865,0.385,0.678,0.634,�k��,6.1,��
2020/11/14,15:00,0.676,0.975,0.616,1.211,0.866,0.384,0.677,0.636,�k��,5.0,��
2020/11/14,15:10,0.673,0.977,0.615,1.211,0.865,0.385,0.678,0.636,�k��,4.2,��
2020/11/14,15:20,0.675,0.974,0.615,1.212,0.863,0.387,0.678,0.634,�k��,4.4,��
2020/11/14,15:30,0.674,0.977,0.615,1.214,0.866,0.386,0.679,0.637,�k�k��,4.4,��
2020/11/14,15:40,0.674,0.979,0.616,1.213,0.864,0.386,0.679,0.637,�k��,4.6,��
2020/11/14,15:50,0.675,0.977,0.615,1.208,0.866,0.387,0.677,0.639,�k�k��,5.7,��
2020/11/14,16:00,0.674,0.979,0.614,1.211,0.865,0.387,0.680,0.639,�k�k��,5.4,��
2020/11/14,16:10,0.674,0.978,0.617,1.210,0.865,0.388,0.678,0.638,�k�k��,5.8,��
2020/11/14,16:20,0.673,0.978,0.616,1.209,0.866,0.386,0.679,0.638,�k�k��,6.0,��
2020/11/14,16:30,0.674,0.979,0.616,1.212,0.866,0.387,0.679,0.638,�k�k��,6.4,��
2020/11/14,16:40,0.673,0.979,0.618,1.211,0.866,0.385,0.679,0.637,�k��,6.3,��
2020/11/14,16:50,0.676,0.979,0.616,1.210,0.866,0.388,0.678,0.638,�k��,6.0,��
2020/11/14,17:00,0.676,0.979,0.618,1.212,0.865,0.387,0.678,0.638,�k��,3.9,��
2020/11/14,17:10,0.675,0.978,0.616,1.211,0.867,0.386,0.679,0.637,���k��,2.6,��
2020/11/14,17:20,0.675,0.978,0.617,1.210,0.869,0.385,0.679,0.637,���k��,3.5,��
2020/11/14,17:30,0.678,0.979,0.615,1.211,0.869,0.387,0.677,0.636,���k��,4.2,��
2020/11/14,17:40,0.674,0.978,0.615,1.210,0.868,0.385,0.681,0.637,���k��,6.7,��
2020/11/14,17:50,0.674,0.979,0.617,1.210,0.866,0.386,0.678,0.637,���k��,6.2,��
2020/11/14,18:00,0.674,0.978,0.615,1.212,0.868,0.384,0.679,0.638,�k��,4.4,��
2020/11/14,18:10,0.674,0.978,0.616,1.209,0.866,0.386,0.679,0.636,�k��,5.6,��
2020/11/14,18:20,0.674,0.979,0.615,1.211,0.868,0.386,0.680,0.636,�k��,4.6,��
2020/11/14,18:30,0.676,0.979,0.616,1.211,0.870,0.386,0.679,0.638,�k��,4.0,��
2020/11/14,18:40,0.674,0.976,0.617,1.211,0.867,0.386,0.678,0.636,�k��,4.5,��
2020/11/14,18:50,0.675,0.977,0.616,1.211,0.866,0.385,0.678,0.635,�k��,4.9,��
2020/11/14,19:00,0.676,0.975,0.616,1.211,0.869,0.386,0.680,0.636,�k��,5.7,��
2020/11/14,19:10,0.675,0.978,0.618,1.210,0.867,0.386,0.680,0.637,�k��,6.6,��
2020/11/14,19:20,0.673,0.977,0.617,1.209,0.865,0.386,0.677,0.636,�k��,3.5,��
2020/11/14,19:30,0.674,0.974,0.618,1.209,0.867,0.386,0.678,0.636,�k��,2.8,��
2020/11/14,19:40,0.676,0.976,0.617,1.209,0.867,0.386,0.679,0.636,�k��,5.1,��
2020/11/14,19:50,0.675,0.979,0.616,1.208,0.866,0.384,0.679,0.636,�k��,3.9,��
2020/11/14,20:00,0.675,0.977,0.617,1.211,0.868,0.384,0.679,0.636,�k��,5.2,��
2020/11/14,20:10,0.674,0.978,0.617,1.209,0.869,0.385,0.678,0.637,�k��,4.5,��
2020/11/14,20:20,0.676,0.977,0.617,1.209,0.867,0.386,0.679,0.636,�k��,4.3,��
2020/11/14,20:30,0.675,0.978,0.615,1.210,0.866,0.384,0.678,0.637,�k��,4.1,��
2020/11/14,20:40,0.673,0.979,0.616,1.211,0.867,0.386,0.678,0.637,���k��,4.2,��
2020/11/14,20:50,0.673,0.978,0.616,1.210,0.866,0.385,0.678,0.637,���k��,5.3,��
2020/11/14,21:00,0.674,0.975,0.615,1.211,0.865,0.385,0.679,0.637,���k��,5.6,��
2020/11/14,21:10,0.674,0.976,0.617,1.207,0.867,0.385,0.678,0.636,���k��,4.9,��
2020/11/14,21:20,0.674,0.976,0.616,1.210,0.866,0.384,0.679,0.636,���k��,5.2,��
2020/11/14,21:30,0.674,0.975,0.617,1.209,0.867,0.384,0.679,0.637,��,4.9,��
2020/11/14,21:40,0.675,0.977,0.617,1.212,0.868,0.386,0.679,0.637,���k��,5.1,��
2020/11/14,21:50,0.674,0.976,0.615,1.212,0.867,0.385,0.679,0.636,���k��,4.9,��
2020/11/14,22:00,0.673,0.975,0.616,1.211,0.866,0.385,0.677,0.636,���k��,5.6,��
2020/11/14,22:10,0.674,0.976,0.615,1.211,0.866,0.385,0.676,0.636,���k��,5.0,��
2020/11/14,22:20,0.673,0.975,0.615,1.210,0.866,0.385,0.677,0.637,���k��,4.2,��
2020/11/14,22:30,0.674,0.977,0.616,1.209,0.867,0.386,0.677,0.637,��,3.6,��
2020/11/14,22:40,0.674,0.978,0.613,1.211,0.866,0.386,0.678,0.636,��,3.2,��
2020/11/14,22:50,0.673,0.978,0.615,1.210,0.867,0.384,0.677,0.637,��,3.2,��
2020/11/14,23:00,0.674,0.977,0.616,1.210,0.866,0.384,0.678,0.636,��,3.2,��
2020/11/14,23:10,0.673,0.974,0.617,1.213,0.867,0.385,0.678,0.635,��,3.3,��
2020/11/14,23:20,0.673,0.974,0.614,1.209,0.865,0.385,0.675,0.636,��,2.9,��
2020/11/14,23:30,0.671,0.977,0.615,1.210,0.866,0.385,0.678,0.635,��,3.9,��
2020/11/14,23:40,0.674,0.975,0.616,1.207,0.868,0.386,0.677,0.637,���k��,2.3,��
2020/11/14,23:50,0.672,0.976,0.615,1.210,0.867,0.384,0.678,0.635,���k��,2.2,��
